Weather History for Bryce Canyon, UT

Change the Weather History Date:

Thursday, October 3, 2013

  Actual Average Record
Temperature  
Mean Temperature 44 °F -  
Max Temperature 61 °F 64 °F 77 °F (1980)
Min Temperature 28 °F 32 °F 20 °F (1959)
Degree Days  
Heating Degree Days 20    
Moisture  
Dew Point 28 °F    
Average Humidity 57    
Maximum Humidity 82    
Minimum Humidity 29    
Precipitation  
Precipitation 0.00 in - - ()
Sea Level Pressure  
Sea Level Pressure 29.76 in    
Wind  
Wind Speed 10 mph (West)    
Max Wind Speed 25 mph    
Max Gust Speed 34 mph    
Visibility 10 miles    
Events Rain    
Averages and records for this station are not official NWS values.
T = Trace of Precipitation, MM = Missing Value Source: NWS Daily Summary

Daily Weather History Graph

Daily Weather History Graph

Search for Another Location

Airport:

Trip Planner

Search our weather history database for the weather conditions in past years. The results will help you decide how hot, cold, wet, or windy it might be!

Date:

Astronomy

Oct. 03, 2013 Rise Set
Actual Time 7:26 AM MDT 7:08 PM MDT
Civil Twilight 7:00 AM MDT 7:34 PM MDT
Nautical Twilight 6:29 AM MDT 8:04 PM MDT
Astronomical Twilight 5:59 AM MDT 8:35 PM MDT
Moon 6:04 AM MDT (10/3) 6:18 PM MDT (10/3)
Length of Visible Light 12h 34m
Length of Day
11h 41m
Waning Crescent, 2% of the Moon is Illuminated
Oct 3
Waning Crescent
Oct 4
New
Oct 11
First Quarter
Oct 18
Full
Oct 26
Last Quarter

Hourly Weather History & Observations

Time (MDT) Temp. Windchill Dew Point Humidity Pressure Visibility Wind Dir Wind Speed Gust Speed Precip Events Conditions
12:53 AM 36.0 °F 33.3 °F 30.0 °F 79% 29.81 in 10.0 mi WSW 3.5 mph - N/A   Clear
1:53 AM 35.1 °F 31.0 °F 30.0 °F 82% 29.78 in 10.0 mi SW 4.6 mph - N/A   Clear
2:53 AM 34.0 °F - 28.0 °F 79% 29.77 in 10.0 mi Calm Calm - N/A   Clear
3:53 AM 35.1 °F - 28.0 °F 76% 29.76 in 10.0 mi Calm Calm - N/A   Clear
4:53 AM 37.0 °F - 28.9 °F 73% 29.73 in 10.0 mi Calm Calm - N/A   Clear
5:53 AM 46.9 °F - 33.1 °F 59% 29.68 in 10.0 mi SW 16.1 mph 24.2 mph N/A   Clear
6:53 AM 46.9 °F - 33.1 °F 59% 29.69 in 10.0 mi SW 15.0 mph - N/A   Clear
7:53 AM 46.9 °F - 34.0 °F 61% 29.73 in 10.0 mi SW 13.8 mph 20.7 mph N/A   Clear
8:53 AM 51.1 °F - 35.1 °F 54% 29.73 in 10.0 mi SSW 8.1 mph - N/A   Clear
9:53 AM 52.0 °F - 35.1 °F 53% 29.75 in 10.0 mi WSW 15.0 mph 24.2 mph N/A   Clear
10:53 AM 54.0 °F - 35.1 °F 49% 29.73 in 10.0 mi WSW 12.7 mph 21.9 mph N/A   Unknown
11:53 AM 57.0 °F - 33.1 °F 40% 29.70 in 10.0 mi West 17.3 mph 26.5 mph N/A   Mostly Cloudy
12:53 PM 57.9 °F - 28.9 °F 33% 29.67 in 10.0 mi WSW 20.7 mph 32.2 mph N/A   Clear
1:53 PM 61.0 °F - 28.0 °F 29% 29.64 in 10.0 mi WSW 23.0 mph 34.5 mph N/A   Scattered Clouds
2:24 PM 53.6 °F - 32.0 °F 44% 29.89 in 10.0 mi NW 13.8 mph 28.8 mph N/A   Overcast
2:53 PM 51.1 °F - 30.9 °F 46% 29.68 in 10.0 mi NW 19.6 mph 27.6 mph N/A   Mostly Cloudy
3:53 PM 46.9 °F - 28.0 °F 48% 29.71 in 10.0 mi NW 23.0 mph 33.4 mph N/A   Overcast
4:53 PM 44.1 °F 38.1 °F 28.0 °F 53% 29.74 in 10.0 mi WNW 11.5 mph 28.8 mph 0.00 in Rain Light Rain
5:53 PM 43.0 °F 33.3 °F 21.0 °F 42% 29.74 in 10.0 mi NW 25.3 mph 33.4 mph 0.00 in   Overcast
6:53 PM 36.0 °F 24.2 °F 24.1 °F 62% 29.81 in 10.0 mi NW 24.2 mph 29.9 mph N/A   Overcast
7:53 PM 36.0 °F 24.2 °F 18.0 °F 48% 29.84 in 10.0 mi NW 24.2 mph 32.2 mph N/A   Overcast
8:53 PM 33.1 °F 25.5 °F 25.0 °F 72% 29.87 in 10.0 mi North 9.2 mph - N/A   Overcast
10:53 PM 28.9 °F 16.1 °F 17.1 °F 61% 29.88 in 10.0 mi North 19.6 mph - N/A   Clear
11:53 PM 28.9 °F 18.6 °F 17.1 °F 61% 29.88 in 10.0 mi North 12.7 mph - N/A   Clear